LEMUR-2-JENNYBARNA (42753 NORAD) Tracking and Keplerian Element Data

This shows tracking and keplerian element data for the satellite.

Feedback or suggestion? Click here.




ElementValue
Catalog42753
NameLEMUR-2-JENNYBARNA
Epoch Orbit31041
Epoch Day353.25873013
Epoch Year2022
RAAN358.8132
Inclination51.6025
Eccentricity0.0001102
Argument of Perigee63.3968
Mean Anonmoly47.0288
Mean Motion16.4765227
Decay Rate0.22646661
L11 42753U 17019C 22353.25873013 .22646661 12618-4 41625-3 0 9999
L22 42753 51.6025 358.8132 0001102 63.3968 47.0288 16.47652270310419



Live tracking and technical data element details for LEMUR-2-JENNYBARNA (NORAD 42753). LEMUR-2-JENNYBARNA can be tracked NOW for your location showing map with azimuth and elevation plus other details from your city location.







IsCatalogInMostPopularTable: catalog: 42753, numindb: 372
Update: records affected: 1



GetName: 42753 LEMUR-2-JENNYBARNA

Hit Count: updated at: Thu, 15 May 2025 10:15:33 GMT